Starlink 35812

operational
NORAD ID: 66574 Int'l Des: 2025-268 Owner: SPXS Country: US Constellation: starlink
LEOCIRCULAR

Über Starlink 35812

Beschreibung wird geladen...

Live-Position

3D-Globus wird geladen...

Nächste Überflüge

Höhenverlauf

Altitude vs Time

uPlot chart will show altitude changes over time

Zweizeiliger Elementsatz

1 66574U 25268T 26063.23800073 .00056773 00000-0 20536-2 0 9997
2 66574 43.0043 18.0535 0003712 244.8862 115.1605 15.27627311 17128
Epoch: 4. März 2026 • Age: 17 hours

Aktueller Status

Höhe 481.5 km
Geschwindigkeit 7.63 km/s
Subsatellitenpunkt 0.84°N, 129.77°E
Startdatum 21. Nov. 2025
Alter 0.2 years
Typ internet

Technische Details

Klassifizierung Payload
Masse 575.00 kg
Trockenmasse 530.00 kg
Gesamtmasse 575.00 kg
Länge 0.30 m
Durchmesser 4.10 m
Spannweite 29.00 m
Form Box + pan
Hersteller SPXS
Bus-Typ Starlink V2MO
Phasenstatus In Orbit
Besitzer/Staat SPXS/US

Große Konstellationen

Loading constellations...